When you browse on this site, cookies collect data to enhance your experience and personalize the content and advertising you see.
Visit our Privacy Policy to learn more. By continuing to use the site, you agree to this use of cookies and data.
  • In Sweden
  • List of Countries
  • For 7 days
  • Water Temperature
  • Weather Map
  • Weather Widgets
  • user-avatar
    Login

    Hourly Weather Vorohta

    Today, 7 December, Saturday

    Time Temperature Precipitation Wind Pressure Humidity
    00:00 -2°C° 0 mm 4 mps 684 mmHg 71%
    01:00 -2°C° 0 mm 3 mps 683 mmHg 75%
    02:00 -2°C° 0 mm 1 mps 683 mmHg 87%
    03:00 -4°C° 0 mm 4 mps 683 mmHg 82%
    04:00 -3°C° 0 mm 4 mps 682 mmHg 78%
    05:00 -3°C° 0 mm 4 mps 682 mmHg 74%
    06:00 -3°C° 0 mm 4 mps 682 mmHg 71%
    07:00 -4°C° 0 mm 5 mps 682 mmHg 78%
    08:00 -3°C° 0 mm 4 mps 682 mmHg 83%
    09:00 -3°C° 0 mm 4 mps 683 mmHg 83%
    10:00 -1°C° 0 mm 3 mps 683 mmHg 84%
    11:00 -1°C° 0 mm 5 mps 683 mmHg 87%
    12:00 0°C° 0 mm 5 mps 683 mmHg 86%
    13:00 0°C° 0 mm 5 mps 683 mmHg 86%
    14:00 0°C° 0 mm 4 mps 682 mmHg 87%
    15:00 0°C° 0 mm 5 mps 682 mmHg 90%
    16:00 -1°C° 0 mm 6 mps 681 mmHg 91%
    17:00 -1°C° 0 mm 5 mps 681 mmHg 93%
    18:00 -2°C° 0 mm 6 mps 681 mmHg 95%
    19:00 -3°C° 0 mm 6 mps 682 mmHg 98%
    20:00 -2°C° 0 mm 5 mps 683 mmHg 100%
    21:00 -3°C° 0 mm 4 mps 683 mmHg 100%
    22:00 -3°C° 0 mm 4 mps 683 mmHg 99%
    23:00 -3°C° 0 mm 4 mps 683 mmHg 97%

    Tomorrow, 8 December, Sunday

    Time Temperature Precipitation Wind Pressure Humidity
    00:00 -4°C° 0 mm 5 mps 683 mmHg 97%
    01:00 -4°C° 0 mm 5 mps 683 mmHg 97%
    02:00 -3°C° 0 mm 4 mps 683 mmHg 97%
    03:00 -2°C° 0 mm 4 mps 683 mmHg 96%
    04:00 -3°C° 0 mm 4 mps 683 mmHg 98%
    05:00 -3°C° 0 mm 4 mps 683 mmHg 98%
    06:00 -2°C° 0 mm 3 mps 683 mmHg 99%
    07:00 -2°C° 0 mm 3 mps 684 mmHg 100%
    08:00 -2°C° 0 mm 3 mps 684 mmHg 100%
    09:00 -1°C° 0 mm 3 mps 684 mmHg 100%
    10:00 -1°C° 0 mm 3 mps 684 mmHg 100%
    11:00 -1°C° 0 mm 4 mps 684 mmHg 100%
    12:00 -1°C° 0 mm 4 mps 684 mmHg 100%
    13:00 -1°C° 0 mm 5 mps 684 mmHg 100%
    14:00 -1°C° 0 mm 5 mps 684 mmHg 100%
    15:00 -1°C° 0 mm 5 mps 684 mmHg 100%
    16:00 -2°C° 0 mm 5 mps 683 mmHg 100%
    17:00 -2°C° 0 mm 5 mps 683 mmHg 100%
    18:00 -3°C° 0 mm 6 mps 683 mmHg 100%
    19:00 -3°C° 0 mm 6 mps 683 mmHg 100%
    20:00 -3°C° 0 mm 6 mps 683 mmHg 100%
    21:00 -2°C° 0 mm 6 mps 683 mmHg 99%
    22:00 -1°C° 0 mm 5 mps 683 mmHg 100%
    23:00 -2°C° 0 mm 6 mps 683 mmHg 100%

    Day after tomorrow, 9 December, Monday

    Time Temperature Precipitation Wind Pressure Humidity
    00:00 -2°C° 0 mm 6 mps 682 mmHg 100%
    01:00 -2°C° 0 mm 6 mps 682 mmHg 100%
    02:00 -1°C° 0 mm 6 mps 682 mmHg 100%
    03:00 -1°C° 0 mm 6 mps 682 mmHg 100%
    04:00 0°C° 0 mm 4 mps 681 mmHg 100%
    05:00 -1°C° 0 mm 6 mps 680 mmHg 100%
    06:00 -1°C° 0 mm 6 mps 679 mmHg 100%
    07:00 -1°C° 0 mm 6 mps 680 mmHg 100%
    08:00 0°C° 0 mm 7 mps 679 mmHg 100%
    09:00 0°C° 0 mm 8 mps 679 mmHg 100%
    10:00 0°C° 0 mm 8 mps 679 mmHg 100%
    11:00 0°C° 0 mm 8 mps 679 mmHg 100%
    12:00 +1°C° 0 mm 8 mps 679 mmHg 100%
    13:00 +2°C° 0 mm 7 mps 680 mmHg 100%
    14:00 +2°C° 0 mm 5 mps 680 mmHg 100%
    15:00 +3°C° 0 mm 4 mps 679 mmHg 100%
    16:00 +1°C° 0 mm 4 mps 679 mmHg 100%
    17:00 +2°C° 0 mm 3 mps 679 mmHg 100%
    18:00 +2°C° 0 mm 3 mps 679 mmHg 100%
    19:00 +2°C° 0 mm 3 mps 679 mmHg 100%
    20:00 +2°C° 0 mm 3 mps 679 mmHg 100%
    21:00 +2°C° 0.1 mm 3 mps 679 mmHg 100%
    22:00 +2°C° 0 mm 3 mps 679 mmHg 100%
    23:00 +2°C° 0 mm 3 mps 679 mmHg 100%

    10 December, Tuesday

    Time Temperature Precipitation Wind Pressure Humidity
    00:00 +1°C° 0 mm 4 mps 679 mmHg 100%
    01:00 +1°C° 0 mm 4 mps 679 mmHg 100%
    02:00 +1°C° 0 mm 4 mps 679 mmHg 100%
    03:00 +1°C° 0 mm 3 mps 679 mmHg 100%
    04:00 +1°C° 0 mm 3 mps 679 mmHg 100%
    05:00 0°C° 0 mm 4 mps 679 mmHg 100%
    06:00 0°C° 0 mm 3 mps 679 mmHg 100%
    07:00 0°C° 0 mm 3 mps 679 mmHg 100%
    08:00 +1°C° 0 mm 2 mps 679 mmHg 100%
    09:00 -1°C° 0 mm 2 mps 680 mmHg 100%
    10:00 +2°C° 0 mm 1 mps 680 mmHg 100%
    11:00 +3°C° 0 mm 1 mps 681 mmHg 100%
    12:00 +4°C° 0.2 mm 1 mps 681 mmHg 100%
    13:00 +3°C° 0.1 mm 0 mps 681 mmHg 100%
    14:00 +3°C° 0.3 mm 1 mps 681 mmHg 100%
    15:00 +1°C° 0.7 mm 2 mps 681 mmHg 100%
    16:00 +1°C° 0.5 mm 2 mps 682 mmHg 100%
    17:00 -1°C° 0.3 mm 2 mps 682 mmHg 100%
    18:00 -1°C° 0.2 mm 2 mps 683 mmHg 100%
    19:00 -1°C° 0.1 mm 2 mps 683 mmHg 100%
    20:00 -1°C° 0.2 mm 2 mps 684 mmHg 100%
    21:00 -2°C° 0.1 mm 2 mps 684 mmHg 100%
    22:00 -2°C° 0.1 mm 2 mps 684 mmHg 100%
    23:00 -2°C° 0.2 mm 2 mps 685 mmHg 100%

    11 December, Wednesday

    Time Temperature Precipitation Wind Pressure Humidity
    00:00 -3°C° 0.1 mm 2 mps 685 mmHg 100%
    01:00 -3°C° 0.1 mm 2 mps 685 mmHg 100%
    02:00 -3°C° 0.1 mm 2 mps 685 mmHg 100%

    12 December, Thursday

    Time Temperature Precipitation Wind Pressure Humidity
    Show more